Location: Bittelbronn
(48.4454°N, 8.5870°E)
Time: 13:25:13
(UTC+00:00)

SJ 16-02 - Pass Details

Date: 25 April 2025
Orbit: 587 x 597 km, 75.0° (Epoch: 15 May)

Event Time Altitude Azimuth Distance (km) Brightness Sun altitude
Rises 19:00:28 0° 339° (NNW) 2,850 5.6 -5.2°
Reaches altitude 10° 19:02:42 10° 340° (NNW) 1,945 4.7 -5.5°
Maximum altitude 19:07:03 82° 69° (ENE) 610 1.3 -6.2°
Drops below altitude 10° 19:11:22 10° 157° (SSE) 1,932 3.4 -6.8°
Enters shadow 19:13:01 - 158° (SSE) 2,603 4.1 -7.0°
